LUDI TANCE-4 01A (57624 NORAD) Tracking and Keplerian Element Data

This shows tracking and keplerian element data for the satellite.

Feedback or suggestion? Click here.




ElementValue
Catalog57624
NameLUDI TANCE-4 01A
Epoch Orbit24
Epoch Day236.57087714
Epoch Year2023
RAAN218.7706
Inclination16.1013
Eccentricity0.0003509
Argument of Perigee284.7786
Mean Anonmoly124.0876
Mean Motion1.0026831
Decay Rate-1.68E-06
L11 57624U 23120A 23236.57087714 -.00000168 00000+0 00000+0 0 9991
L22 57624 16.1013 218.7706 0003509 284.7786 124.0876 1.00268310 243



Live tracking and technical data element details for LUDI TANCE-4 01A (NORAD 57624). LUDI TANCE-4 01A can be tracked NOW for your location showing map with azimuth and elevation plus other details from your city location.







IsCatalogInMostPopularTable: catalog: 57624, numindb: 18
Update: records affected: 1



GetName: 57624 LUDI TANCE-4 01A

Hit Count: updated at: Tue, 26 Sep 2023 12:43:35 GMT